Orbital Elements at Epoch 2459200.5 (2020-Dec-17.0) TDB
Reference: JPL 20 (heliocentric ecliptic J2000)
Element | Value | Uncertainty (1-sigma) | Units |
e | .06486914802530928 | 4.9052e-08 | |
a | 2.736489010090011 | 1.515e-08 | au |
q | 2.55897529942485 | 1.3216e-07 | au |
i | 2.834937695843475 | 5.3069e-06 | deg |
node | 356.1913006309016 | 8.4841e-05 | deg |
peri | 159.7511547441315 | 9.1327e-05 | deg |
M | 71.44667870277111 | 3.2259e-05 | deg |
tp | 2458872.352928045810 (2020-Jan-23.85292805) | 0.00014815 | TDB |
period | 1653.442092038446 4.53 | 1.3731e-05 3.759e-08 | d yr |
n | .217727613040366 | 1.8081e-09 | deg/d |
Q | 2.914002720755172 | 1.6133e-08 | au |
|
| | Orbit Determination Parameters
Additional Information
|